Regional Weather Roundup
Issued by NWS State College, PA

Home | Current Version | Previous Version | Graphics & Text | Print | Product List | Glossary Off
Versions: 1 2 3 4 5 6 7 8 9 10 11 12 13 14 15 16 17 18 19 20 21 22 23 24 25 26 27 28 29 30 31 32 33 34 35 36 37 38 39 40 41 42 43 44 45 46 47 48 49 50

000
ASUS41 KCTP 052003
RWRCTP

REGIONAL WEATHER ROUNDUP
NATIONAL WEATHER SERVICE STATE COLLEGE PA
300 PM EST THU MAR 05 2015

Note: "fair" indicates few or no clouds below 12,000 feet with no
significant weather and/or obstructions to visibility.

* = STATION THAT DOES NOT REPORT PRECIPITATION /E.G. RAIN...SNOW...ETC/
    THUNDER OR FOG.

PAZ002>004-007>009-013>016-020>023-029>032-052100-
WESTERN PENNSYLVANIA

CITY           SKY/WX    TMP DP  RH WIND       PRES   REMARKS
ERIE           MOSUNNY   13  -2  51 W9        30.35F WCI   1
MEADVILLE      MOSUNNY   12  -2  53 N9        30.26R WCI   0
FRANKLIN*      CLOUDY    12  -2  52 W8        30.24R WCI   1
NEW CASTLE     FAIR      13  -3  48 NW9       30.32R WCI   1
BEAVER COUNTY  SUNNY     16   0  48 N8G16     30.27R WCI   5
BUTLER*        CLOUDY    16  -2  45 N6        30.27R WCI   7
PITTSBURGH INT CLOUDY    16   1  51 N13       30.26R WCI   2
PITTSBURGH     CLOUDY    16   3  56 NW8       30.24S WCI   5
INDIANA*       MOSUNNY   16   3  57 NW10      30.24R WCI   3
LATROBE        PTSUNNY   16   7  67 N9        30.25R WCI   4
WASHINGTON CO* CLOUDY    16   3  57 NW9       30.27R WCI   4
$$

PAZ004>006-010>012-017>019-024>028-033>037-041-042-045-046-049>053-052100-
CENTRAL PENNSYLVANIA

CITY           SKY/WX    TMP DP  RH WIND       PRES   REMARKS
BRADFORD       CLOUDY    10  -6  48 NW13      30.13R WCI  -5
DUBOIS         CLOUDY    14  -3  47 NW10      30.14F WCI   1
CLEARFIELD     CLOUDY    16  -3  43 NW9       30.17S WCI   4
JOHNSTOWN      CLOUDY    12   5  73 NW9       30.08F WCI   0
ALTOONA        CLOUDY    17   6  62 NW12      30.14F WCI   4
STATE COLLEGE  NOT AVBL
WILLIAMSPORT   CLOUDY    21   0  39 NW9       30.20F WCI  11
SELINSGROVE    CLOUDY    22   2  42 N12       30.20S WCI  10
FT INDIANTOWN  LGT SNOW  19  12  76 VRB2      30.20R
CAPITAL CITY   SNOW      20  16  84 N6        30.22R VSB 1/2 WCI  12
HARRISBURG     SNOW      20  16  84 NE8       30.21R VSB 1/2 WCI  10
YORK           NOT AVBL
$$

PAZ038>040-043-044-047-048-054-055-060>062-067>071-052100-
EASTERN PENNSYLVANIA

CITY           SKY/WX    TMP DP  RH WIND       PRES   REMARKS
SCRANTON       CLOUDY    18   3  52 N10       30.15F WCI   6
MOUNT POCONO   CLOUDY    14  -1  51 N9        30.04F WCI   2
ALLENTOWN      LGT SNOW  19  12  74 NW9       30.20R VSB 1   WCI   8
QUAKERTOWN*    CLOUDY    18  16  93 N5        30.19R VSB 1/2 WCI  11
READING        LGT SNOW  19  15  84 N8        30.20R VSB 3/4 WCI   9
LANCASTER      LGT SNOW  20  15  81 N10       30.19S VSB 3/4 WCI   9
COATESVILLE    SNOW      19  18  93 N12       30.18R VSB 1/2 WCI   7
POTTSTOWN      LGT SNOW  19  16  88 NW6       30.22R VSB 3/4 WCI  11
BLUE BELL      CLOUDY    23  19  86 NW3       30.20R VSB 1/2
DOYLESTOWN     LGT SNOW  19  16  88 N5        30.19R FOG     WCI  12
WILLOW GROVE   NOT AVBL
NORTH PHILA    SNOW      23  19  85 N12       30.22R VSB 1/2 WCI  12
PHILADELPHIA   HVY SNOW  22  19  89 N13       30.21F VSB 1/4 WCI  10
$$


USA.gov is the U.S. government's official web portal to all federal, state and local government web resources and services.